When you browse on this site, cookies collect data to enhance your experience and personalize the content and advertising you see.
Visit our Privacy Policy to learn more. By continuing to use the site, you agree to this use of cookies and data.
  • în România
  • Lista ţărilor
  • Pe 7 zile
  • Temperatura apei
  • Meteo pe hartă
  • Widget-uri
  • user-avatar
    Intrare

    Meteo pe oră la Mochudi

    Astăzi, 18 Ianuarie, Sâmbătă

    Timp Temperatura Precipitaţii Vânt Presiune Umiditate
    00:00 +24°C° 0.2 mm 3 m/s 677 mmHg 61%
    01:00 +22°C° 0.2 mm 3 m/s 677 mmHg 66%
    02:00 +23°C° 0 mm 2 m/s 677 mmHg 74%
    03:00 +23°C° 0.2 mm 2 m/s 677 mmHg 75%
    04:00 +21°C° 0.2 mm 2 m/s 676 mmHg 76%
    05:00 +22°C° 0.2 mm 1 m/s 676 mmHg 77%
    06:00 +22°C° 0.6 mm 1 m/s 677 mmHg 77%
    07:00 +23°C° 0.6 mm 1 m/s 677 mmHg 77%
    08:00 +23°C° 0 mm 1 m/s 678 mmHg 70%
    09:00 +24°C° 0.4 mm 1 m/s 678 mmHg 72%
    10:00 +24°C° 0.4 mm 2 m/s 678 mmHg 74%
    11:00 +24°C° 0.4 mm 3 m/s 678 mmHg 77%
    12:00 +24°C° 0.7 mm 3 m/s 678 mmHg 78%
    13:00 +24°C° 0.7 mm 3 m/s 677 mmHg 80%
    14:00 +24°C° 0.7 mm 3 m/s 677 mmHg 81%
    15:00 +24°C° 0.4 mm 3 m/s 677 mmHg 79%
    16:00 +24°C° 0.4 mm 3 m/s 676 mmHg 77%
    17:00 +24°C° 0.4 mm 3 m/s 676 mmHg 74%
    18:00 +24°C° 0 mm 3 m/s 676 mmHg 76%
    19:00 +23°C° 0 mm 2 m/s 676 mmHg 78%
    20:00 +23°C° 0 mm 2 m/s 676 mmHg 80%
    21:00 +21°C° 0 mm 2 m/s 676 mmHg 82%
    22:00 +21°C° 0 mm 2 m/s 676 mmHg 85%
    23:00 +20°C° 0 mm 2 m/s 676 mmHg 87%

    Mâine, 19 Ianuarie, Duminică

    Timp Temperatura Precipitaţii Vânt Presiune Umiditate
    00:00 +20°C° 0 mm 2 m/s 675 mmHg 86%
    01:00 +20°C° 0 mm 2 m/s 675 mmHg 86%
    02:00 +20°C° 0 mm 2 m/s 675 mmHg 85%
    03:00 +20°C° 0 mm 1 m/s 675 mmHg 85%
    04:00 +20°C° 0 mm 1 m/s 675 mmHg 86%
    05:00 +20°C° 0 mm 1 m/s 674 mmHg 86%
    06:00 +21°C° 0 mm 2 m/s 675 mmHg 78%
    07:00 +23°C° 0 mm 2 m/s 676 mmHg 71%
    08:00 +25°C° 0 mm 2 m/s 676 mmHg 64%
    09:00 +27°C° 0 mm 2 m/s 677 mmHg 57%
    10:00 +29°C° 0 mm 2 m/s 677 mmHg 50%
    11:00 +31°C° 0 mm 2 m/s 677 mmHg 43%
    12:00 +34°C° 0 mm 2 m/s 677 mmHg 39%
    13:00 +35°C° 0 mm 2 m/s 676 mmHg 36%
    14:00 +36°C° 0 mm 2 m/s 676 mmHg 32%
    15:00 +36°C° 0 mm 2 m/s 676 mmHg 33%
    16:00 +35°C° 0 mm 2 m/s 676 mmHg 34%
    17:00 +35°C° 0 mm 2 m/s 675 mmHg 35%
    18:00 +33°C° 0.5 mm 3 m/s 676 mmHg 46%
    19:00 +29°C° 0.5 mm 4 m/s 676 mmHg 57%
    20:00 +27°C° 0.5 mm 5 m/s 676 mmHg 68%
    21:00 +26°C° 0.3 mm 5 m/s 676 mmHg 71%
    22:00 +25°C° 0.3 mm 5 m/s 677 mmHg 74%
    23:00 +23°C° 0.3 mm 5 m/s 677 mmHg 78%

    Poimâine, 20 Ianuarie, Luni

    Timp Temperatura Precipitaţii Vânt Presiune Umiditate
    00:00 +23°C° 0.2 mm 5 m/s 677 mmHg 79%
    01:00 +22°C° 0.2 mm 5 m/s 677 mmHg 81%
    02:00 +22°C° 0.2 mm 5 m/s 677 mmHg 83%
    03:00 +22°C° 0 mm 5 m/s 678 mmHg 83%
    04:00 +22°C° 0 mm 5 m/s 678 mmHg 83%
    05:00 +21°C° 0 mm 5 m/s 678 mmHg 83%
    06:00 +22°C° 0 mm 4 m/s 679 mmHg 79%
    07:00 +22°C° 0 mm 4 m/s 679 mmHg 75%
    08:00 +23°C° 0 mm 4 m/s 680 mmHg 71%
    09:00 +26°C° 0 mm 5 m/s 680 mmHg 64%
    10:00 +27°C° 0 mm 5 m/s 680 mmHg 56%
    11:00 +29°C° 0 mm 6 m/s 681 mmHg 48%
    12:00 +30°C° 0 mm 5 m/s 680 mmHg 44%
    13:00 +32°C° 0 mm 5 m/s 680 mmHg 41%
    14:00 +34°C° 0 mm 4 m/s 679 mmHg 37%
    15:00 +33°C° 0 mm 4 m/s 679 mmHg 38%
    16:00 +33°C° 0 mm 4 m/s 678 mmHg 38%
    17:00 +33°C° 0 mm 4 m/s 678 mmHg 39%
    18:00 +32°C° 0 mm 4 m/s 678 mmHg 42%
    19:00 +29°C° 0 mm 4 m/s 678 mmHg 46%
    20:00 +28°C° 0 mm 3 m/s 678 mmHg 49%
    21:00 +27°C° 0 mm 4 m/s 678 mmHg 52%
    22:00 +27°C° 0 mm 5 m/s 679 mmHg 54%
    23:00 +26°C° 0 mm 5 m/s 680 mmHg 56%

    21 Ianuarie, Marţi

    Timp Temperatura Precipitaţii Vânt Presiune Umiditate
    00:00 +25°C° 0 mm 5 m/s 679 mmHg 61%
    01:00 +23°C° 0 mm 5 m/s 679 mmHg 65%
    02:00 +22°C° 0 mm 5 m/s 679 mmHg 70%
    03:00 +22°C° 0 mm 5 m/s 679 mmHg 71%
    04:00 +21°C° 0 mm 5 m/s 679 mmHg 72%
    05:00 +21°C° 0 mm 5 m/s 680 mmHg 73%
    06:00 +21°C° 0 mm 5 m/s 680 mmHg 71%
    07:00 +22°C° 0 mm 5 m/s 680 mmHg 69%
    08:00 +22°C° 0 mm 5 m/s 680 mmHg 67%
    09:00 +25°C° 0 mm 4 m/s 681 mmHg 61%
    10:00 +26°C° 0 mm 4 m/s 681 mmHg 55%
    11:00 +28°C° 0 mm 3 m/s 681 mmHg 49%
    12:00 +30°C° 0 mm 3 m/s 681 mmHg 45%
    13:00 +31°C° 0 mm 3 m/s 680 mmHg 41%
    14:00 +32°C° 0 mm 2 m/s 680 mmHg 37%
    15:00 +34°C° 0 mm 2 m/s 679 mmHg 36%
    16:00 +34°C° 0 mm 2 m/s 679 mmHg 36%
    17:00 +34°C° 0 mm 2 m/s 678 mmHg 35%
    18:00 +32°C° 0 mm 2 m/s 678 mmHg 38%
    19:00 +30°C° 0 mm 2 m/s 678 mmHg 41%
    20:00 +29°C° 0 mm 2 m/s 678 mmHg 44%
    21:00 +28°C° 0.2 mm 3 m/s 679 mmHg 49%
    22:00 +27°C° 0.2 mm 3 m/s 679 mmHg 53%
    23:00 +26°C° 0.2 mm 3 m/s 679 mmHg 57%

    22 Ianuarie, Miercuri

    Timp Temperatura Precipitaţii Vânt Presiune Umiditate
    00:00 +26°C° 0.5 mm 3 m/s 679 mmHg 61%
    01:00 +25°C° 0.5 mm 4 m/s 678 mmHg 65%
    02:00 +23°C° 0.5 mm 4 m/s 678 mmHg 69%
    03:00 +23°C° 0 mm 4 m/s 678 mmHg 71%
    04:00 +22°C° 0 mm 3 m/s 678 mmHg 74%
    05:00 +21°C° 0 mm 2 m/s 678 mmHg 76%
    06:00 +21°C° 0.1 mm 3 m/s 678 mmHg 72%
    07:00 +22°C° 0.1 mm 4 m/s 679 mmHg 69%
    08:00 +22°C° 0.1 mm 4 m/s 679 mmHg 65%
    09:00 +25°C° 0 mm 4 m/s 679 mmHg 59%
    10:00 +27°C° 0 mm 4 m/s 680 mmHg 53%
    11:00 +29°C° 0 mm 4 m/s 680 mmHg 47%
    12:00 +30°C° 0 mm 4 m/s 679 mmHg 43%
    13:00 +33°C° 0 mm 3 m/s 679 mmHg 38%
    14:00 +35°C° 0 mm 3 m/s 678 mmHg 34%
    15:00 +35°C° 0 mm 3 m/s 678 mmHg 33%
    16:00 +35°C° 0 mm 2 m/s 677 mmHg 32%
    17:00 +35°C° 0 mm 2 m/s 677 mmHg 30%
    18:00 +32°C° 0 mm 2 m/s 677 mmHg 35%
    19:00 +30°C° 0 mm 2 m/s 677 mmHg 40%
    20:00 +28°C° 0 mm 2 m/s 677 mmHg 45%
    21:00 +27°C° 0.4 mm 3 m/s 677 mmHg 51%
    22:00 +26°C° 0.4 mm 3 m/s 677 mmHg 56%
    23:00 +25°C° 0.4 mm 3 m/s 677 mmHg 62%

    23 Ianuarie, Joi

    Timp Temperatura Precipitaţii Vânt Presiune Umiditate
    00:00 +25°C° 0.2 mm 4 m/s 677 mmHg 66%
    01:00 +23°C° 0.2 mm 4 m/s 677 mmHg 69%
    02:00 +22°C° 0.2 mm 5 m/s 677 mmHg 72%
    03:00 +22°C° 0.1 mm 4 m/s 677 mmHg 74%
    04:00 +21°C° 0.1 mm 4 m/s 677 mmHg 76%
    05:00 +21°C° 0.1 mm 3 m/s 677 mmHg 78%
    06:00 +21°C° 0 mm 4 m/s 678 mmHg 75%
    07:00 +22°C° 0 mm 5 m/s 678 mmHg 71%
    08:00 +23°C° 0 mm 5 m/s 679 mmHg 68%
    09:00 +26°C° 0 mm 5 m/s 679 mmHg 61%
    10:00 +28°C° 0 mm 5 m/s 679 mmHg 54%
    11:00 +30°C° 0 mm 5 m/s 680 mmHg 47%
    12:00 +32°C° 0 mm 5 m/s 679 mmHg 44%
    13:00 +33°C° 0 mm 5 m/s 679 mmHg 41%
    14:00 +34°C° 0 mm 4 m/s 678 mmHg 38%
    15:00 +34°C° 0 mm 5 m/s 678 mmHg 37%
    16:00 +34°C° 0 mm 5 m/s 677 mmHg 36%
    17:00 +34°C° 0 mm 6 m/s 677 mmHg 35%
    18:00 +30°C° 3.3 mm 6 m/s 677 mmHg 49%
    19:00 +26°C° 3.3 mm 6 m/s 677 mmHg 64%
    20:00 +22°C° 3.3 mm 6 m/s 677 mmHg 78%
    21:00 +22°C° 0.3 mm 5 m/s 678 mmHg 79%
    22:00 +21°C° 0.3 mm 4 m/s 678 mmHg 79%
    23:00 +21°C° 0.3 mm 3 m/s 678 mmHg 80%
    Arată mai mult